OBJECT D, 57169

Orbit data source: Space-Track

You're viewing an Uncataloged Satellite

Recently launched and/or uncataloged satellites may have evolving metadata. Metadata may include but not limited to: Owner, Maufacturer, Bus, Motor, and Mission.

OBJECT D, 57169 is a satellite in SSO that was launched on Tue, 27 Jun 2023 UTC via a SOYUZ-2-1B launch vehicle from the Vostochny Cosmodrome (VOSTO). Unknown objects in Earth's orbit typically refer to objects detected orbiting the Earth but have not yet been identified or cataloged. These objects could be anything from previously untracked satellites, spent rocket stages, debris from satellite collisions, or even natural meteoroids temporarily captured by Earth's gravity.

Loading next visibility...
Identifier
57169, 2023-091D
Orbit
SSO
Country
Flag of TBDTBD
Related business
None
Manufacturer
Unknown
Mission
Operational Amateur Communications
Bus & Motor
Unknown
Mass
Unknown
Launch date (UTC)
2023-06-27 (3 years ago)
Launch vehicle
SOYUZ-2-1B
Launch site
Vostochny Cosmodrome (VOSTO)
Object type
Unknown
Shape & HBR
Box, 0.1 m
Radar Cross Section
0.035 m², Medium (>0.1 m² and < 1m²)

Expand to show TLE details & history
Last TLE update: 20 hours ago

TLE from 20 hours ago
0 OBJECT D
1 57169U 23091D   26149.53958069  .00010978  00000-0  45744-3 0  9992
2 57169  97.5124 211.0429 0011054 158.8048 201.3649 15.23835156161329
Epoch: 2026-05-29T12:56Z
TLE epoch observation values (Epoch: 2026-05-29T12:56:59.771Z)
Latitude
-0.00004°
Longitude
129.72535°
Altitude
504.455 km
Speed
7.608 km/s
True Right ascension
14h 04m 10s
True Declination
0° 00' 00"
Sunlit
Object was in full shadow at epoch
Visualization orbit readout
Latitude
Unknown
Longitude
Unknown
Altitude
Unknown
Speed
Unknown
Apparent Right ascension
Unknown
Apparent Declination
Unknown
Sunlit
N/A
Visualization observer readout
Local Sidereal Time
18:03:13
Azimuth
Unknown
Elevation
Unknown
Doppler factor
Unknown
Orbital elements
Apogee altitude
498.844 km
Perigee altitude
483.657 km
Semi-major axis
6,869.388 km
Eccentricity
0.00111
Inclination
97.5124°
RAAN
211.0429°
Arg. of periapsis
158.8048°
True anomaly
201.31881°
Mean anomaly
201.3649°
Eccentric anomaly
201.34185°
Mean motion
3.81212 °/min
Orbital period
94.44 mins
BSTAR
0.00045744
Loading maneuver chart data...
Computing Atmospheric mass density...
Loading historical data...
Loading historical data...
Loading historical data...
Loading historical data...
Loading historical data...
Loading historical data...
Loading historical data...

Documentation

Showing up to 5 results
|